Location: Unspecified
(42.1900°N, 71.3291°W)
Time: 07:22:29
(UTC-04:00)

Hubble Space Telescope - Visible Passes

Search period start: 29 May 2017 00:00
Search period end: 08 June 2017 00:00
Orbit: 538 x 542 km, 28.5° (Epoch: 28 May)

Date Brightness Start Highest point End Pass type
(mag) Time Alt. Az. Time Alt. Az. Time Alt. Az.
30 May 3.1 21:58:44 10° SSW 21:58:52 10° SSW 21:58:52 10° SSW visible
31 May 2.9 21:48:31 10° SSW 21:49:32 12° S 21:49:32 12° S visible
01 Jun 2.9 21:38:25 10° SSW 21:39:57 12° S 21:40:05 12° S visible
02 Jun 2.9 21:28:27 10° SSW 21:29:45 11° S 21:30:34 11° S visible
03 Jun 3.0 21:18:44 10° SSW 21:19:31 10° S 21:20:20 10° S visible
